Date String (YYYY-MM-DD hh:mm:ss) UTC,Instrument flags,Ambient pressure (hPa),Sample flow (lpm),Bypass flow (lpm),Sample temperature (°C),Ambient temperature (°C),ASC tube jacket temperature (°C),LED temperature (°C),Box temperature (°C),Sample RH (%),Span deviation,Mass concentration (μg/m³),Mass concentration (μg/m³),Mass concentration (μg/m³)
DateTimeUTC,F1_M11,P_M11,Q1_M11,Q2_M11,T1_M11,T2_M11,T3_M11,T4_M11,T5_M11,U1_M11,ZSPAN_M11,X0_M11,X2_M11,X1_M11
2022-09-13 00:00:00,,0826.5,5.00,0.00,29.7,27.9,00.0,38.3,31.4,10.5,0001.4,0015.00,0009.06,0008.57
2022-09-13 00:01:00,,0826.5,5.01,0.00,29.7,28.1,00.0,38.3,31.5,10.7,0001.7,0014.95,0009.05,0008.57
2022-09-13 00:02:00,,0826.5,5.00,0.00,29.7,28.3,00.0,38.3,31.6,10.5,0001.8,0014.65,0009.09,0008.57
2022-09-13 00:03:00,,0826.5,4.99,0.00,29.8,28.5,00.0,38.4,31.6,10.9,0002.0,0014.83,0009.08,0008.58
2022-09-13 00:04:00,,0826.5,5.00,0.00,29.8,28.7,00.0,38.4,31.7,10.2,0002.2,0015.16,0009.15,0008.61
2022-09-13 00:05:00,,0826.5,4.99,0.00,29.8,28.2,00.0,38.4,31.7,09.6,0002.2,0015.58,0009.19,0008.62
2022-09-13 00:06:00,,0826.5,5.01,0.00,29.8,26.8,00.0,38.4,31.7,09.0,0001.6,0015.06,0009.18,0008.60
2022-09-13 00:07:00,,0826.5,5.01,0.00,29.8,26.4,00.0,38.3,31.6,09.0,0001.9,0014.89,0009.12,0008.58
2022-09-13 00:08:00,,0826.5,5.00,0.00,29.7,26.7,00.0,38.3,31.5,09.0,0002.4,0014.82,0009.11,0008.58
2022-09-13 00:09:00,,0826.5,5.00,0.00,29.7,27.0,00.0,38.3,31.3,09.5,0002.6,0015.25,0009.17,0008.60
2022-09-13 00:10:00,,0826.5,4.99,0.00,29.6,27.3,00.0,38.3,31.3,10.1,0003.1,0014.74,0009.20,0008.61
2022-09-13 00:11:00,,0826.5,5.00,0.00,29.6,27.6,00.0,38.3,31.4,09.7,0003.9,0014.27,0009.20,0008.61
2022-09-13 00:12:00,,0826.5,5.01,0.00,29.7,27.9,00.0,38.3,31.4,09.6,0003.8,0014.38,0009.25,0008.65
2022-09-13 00:13:00,,0826.5,5.01,0.00,29.7,28.2,00.0,38.3,31.6,10.1,0003.5,0014.56,0009.23,0008.66
2022-09-13 00:14:00,,0826.5,4.99,0.00,29.7,28.4,00.0,38.3,31.6,10.7,0003.0,0014.71,0009.24,0008.67
2022-09-13 00:15:00,,0826.5,5.01,0.00,29.8,28.5,00.0,38.4,31.7,10.7,0003.3,0015.19,0009.18,0008.66
2022-09-13 00:16:00,,0826.5,5.00,0.00,29.8,28.4,00.0,38.4,31.8,09.9,0003.6,0014.86,0009.16,0008.67
2022-09-13 00:17:00,,0826.5,5.00,0.00,29.8,27.1,00.0,38.4,31.6,09.7,0003.5,0015.50,0009.15,0008.68
2022-09-13 00:18:00,,0826.5,5.01,0.00,29.7,26.4,00.0,38.3,31.5,09.6,0002.8,0015.57,0009.19,0008.69
2022-09-13 00:19:00,,0826.5,5.01,0.00,29.7,26.6,00.0,38.3,31.5,09.9,0002.5,0016.17,0009.15,0008.69
2022-09-13 00:20:00,,0826.5,5.00,0.00,29.6,26.8,00.0,38.3,31.3,10.0,0002.1,0015.82,0009.09,0008.66
2022-09-13 00:21:00,,0826.5,4.99,0.00,29.6,27.2,00.0,38.3,31.3,09.8,0001.8,0015.65,0009.08,0008.65
2022-09-13 00:22:00,,0826.5,4.99,0.00,29.6,27.5,00.0,38.3,31.3,09.8,0001.9,0015.96,0009.09,0008.65
2022-09-13 00:23:00,,0826.5,5.00,0.00,29.6,27.8,00.0,38.3,31.4,09.7,0002.0,0016.09,0009.08,0008.63
2022-09-13 00:24:00,,0826.5,5.01,0.00,29.6,28.0,00.0,38.3,31.5,09.5,0002.4,0015.86,0009.09,0008.62
2022-09-13 00:25:00,,0826.5,5.00,0.00,29.7,28.2,00.0,38.3,31.5,09.7,0002.5,0015.74,0009.07,0008.60
2022-09-13 00:26:00,,0826.5,4.99,0.00,29.7,28.4,00.0,38.3,31.6,10.4,0002.1,0014.79,0009.03,0008.56
2022-09-13 00:27:00,,0826.5,5.01,0.00,29.8,28.6,00.0,38.4,31.6,10.8,0001.9,0014.85,0008.99,0008.52
2022-09-13 00:28:00,,0826.5,5.00,0.00,29.8,28.6,00.0,38.4,31.8,11.0,0002.2,0014.26,0008.98,0008.49
2022-09-13 00:29:00,,0826.5,4.98,0.00,29.8,27.5,00.0,38.4,31.7,11.6,0001.9,0014.24,0008.93,0008.45
2022-09-13 00:30:00,,0826.5,5.01,0.00,29.8,26.4,00.0,38.3,31.6,11.2,0001.9,0013.58,0008.93,0008.41
2022-09-13 00:31:00,,0826.5,5.00,0.00,29.7,26.5,00.0,38.3,31.6,11.8,0002.4,0013.53,0008.93,0008.39
2022-09-13 00:32:00,,0826.5,5.00,0.00,29.7,26.7,00.0,38.3,31.3,12.7,0002.5,0013.44,0008.90,0008.36
2022-09-13 00:33:00,,0826.5,4.99,0.00,29.6,27.1,00.0,38.3,31.3,12.8,0002.3,0013.13,0008.85,0008.32
2022-09-13 00:34:00,,0826.5,5.01,0.00,29.6,27.4,00.0,38.3,31.3,12.4,0002.3,0012.93,0008.82,0008.29
2022-09-13 00:35:00,,0826.5,5.01,0.00,29.6,27.7,00.0,38.3,31.4,11.6,0002.4,0012.88,0008.77,0008.23
2022-09-13 00:36:00,,0826.5,5.01,0.00,29.6,28.0,00.0,38.3,31.4,10.9,0002.2,0012.75,0008.76,0008.21
2022-09-13 00:37:00,,0826.5,5.00,0.00,29.7,28.2,00.0,38.3,31.5,10.4,0002.4,0012.76,0008.77,0008.20
2022-09-13 00:38:00,,0826.5,4.98,0.00,29.7,28.4,00.0,38.3,31.6,10.1,0002.6,0012.58,0008.75,0008.19
2022-09-13 00:39:00,,0826.5,5.01,0.00,29.8,28.6,00.0,38.4,31.7,09.8,0002.5,0012.67,0008.74,0008.18
2022-09-13 00:40:00,,0826.5,5.00,0.00,29.8,28.7,00.0,38.4,31.7,09.9,0002.5,0013.48,0008.73,0008.17
2022-09-13 00:41:00,,0826.4,5.00,0.00,29.8,27.9,00.0,38.4,31.7,10.6,0002.2,0014.20,0008.72,0008.15
2022-09-13 00:42:00,,0826.5,4.99,0.00,29.8,26.5,00.0,38.4,31.6,11.2,0001.7,0014.45,0008.73,0008.16
2022-09-13 00:43:00,,0826.4,4.99,0.00,29.7,26.3,00.0,38.3,31.5,11.0,0001.7,0014.47,0008.72,0008.17
2022-09-13 00:44:00,,0826.4,5.01,0.00,29.7,26.6,00.0,38.3,31.3,11.2,0001.7,0014.51,0008.75,0008.19
2022-09-13 00:45:00,,0826.5,5.00,0.00,29.6,26.9,00.0,38.3,31.3,11.4,0001.5,0014.50,0008.74,0008.19
2022-09-13 00:46:00,,0826.5,4.99,0.00,29.6,27.3,00.0,38.3,31.3,11.6,0000.7,0014.46,0008.74,0008.20
2022-09-13 00:47:00,,0826.5,5.00,0.00,29.6,27.6,00.0,38.3,31.4,11.1,0000.9,0014.69,0008.71,0008.20
2022-09-13 00:48:00,,0826.5,4.99,0.00,29.6,27.8,00.0,38.3,31.4,11.0,0000.8,0014.96,0008.71,0008.19
2022-09-13 00:49:00,,0826.5,5.01,0.00,29.6,28.1,00.0,38.3,31.5,10.9,0001.1,0015.15,0008.72,0008.20
2022-09-13 00:50:00,,0826.5,5.01,0.00,29.7,28.3,00.0,38.3,31.6,10.8,0000.7,0015.16,0008.72,0008.21
2022-09-13 00:51:00,,0826.5,4.99,0.00,29.7,28.5,00.0,38.3,31.7,10.4,0001.1,0014.70,0008.72,0008.22
2022-09-13 00:52:00,,0826.5,5.01,0.00,29.8,28.7,00.0,38.4,31.7,10.5,0002.2,0013.78,0008.72,0008.25
2022-09-13 00:53:00,,0826.5,4.99,0.00,29.8,28.9,00.0,38.4,31.8,10.5,0002.5,0013.87,0008.73,0008.26
2022-09-13 00:54:00,,0826.5,5.00,0.00,29.9,29.0,00.0,38.4,31.9,10.4,0002.5,0013.81,0008.72,0008.25
2022-09-13 00:55:00,,0826.4,5.00,0.00,29.9,28.5,00.0,38.4,31.9,10.4,0002.4,0014.00,0008.71,0008.26
2022-09-13 00:56:00,,0826.5,5.00,0.00,29.9,27.0,00.0,38.4,31.7,10.1,0002.7,0013.94,0008.71,0008.27
2022-09-13 00:57:00,,0826.5,5.01,0.00,29.8,26.3,00.0,38.4,31.6,09.8,0003.8,0014.30,0008.72,0008.28
2022-09-13 00:58:00,,0826.5,4.99,0.00,29.7,26.4,00.0,38.3,31.4,09.7,0004.2,0013.73,0008.76,0008.33
2022-09-13 00:59:00,,0826.5,5.00,0.00,29.6,26.7,00.0,38.3,31.3,09.9,0004.1,0013.54,0008.80,0008.38
